Overview Statistics Trail Chart Weather Telemetry Raw packets
 

This is the latest recevied weather packets stored in our database for station/object OK0BH-6. If no packets are shown the sender has not sent any weather packets the latest 10 day(s).

<< 1 2 3 4 5 6 >>
Time Temp. Humidity Pressure Rain* Wind** Luminosity Snow
1788552884 28.33° C 34% 1013.9 hPa - - - -
1788552309 28.33° C 34% 1013.9 hPa - - - -
1788551734 28.33° C 34% 1014 hPa - - - -
1788551159 28.33° C 34% 1014.1 hPa - - - -
1788550584 28.33° C 34% 1014.1 hPa - - - -
1788550010 28.33° C 34% 1014.2 hPa - - - -
1788549435 28.33° C 35% 1014.1 hPa - - - -
1788548860 27.78° C 35% 1014.1 hPa - - - -
1788548285 27.78° C 35% 1014.2 hPa - - - -
1788547710 27.78° C 35% 1014.3 hPa - - - -
1788547135 27.78° C 34% 1014.4 hPa - - - -
1788546560 27.78° C 34% 1014.2 hPa - - - -
1788545985 27.78° C 35% 1014.1 hPa - - - -
1788545502 27.78° C 35% 1013.9 hPa - - - -
1788545411 27.78° C 35% 1013.9 hPa - - - -
1788544836 27.78° C 35% 1013.9 hPa - - - -
1788544261 28.33° C 35% 1013.6 hPa - - - -
1788543686 28.33° C 34% 1013.7 hPa - - - -
1788543111 28.89° C 35% 1013.7 hPa - - - -
1788542536 28.89° C 34% 1013.7 hPa - - - -
1788541961 29.44° C 34% 1013.8 hPa - - - -
1788541386 30° C 34% 1013.8 hPa - - - -
1788540812 30° C 34% 1014 hPa - - - -
1788540237 30.56° C 34% 1014 hPa - - - -
1788539662 30.56° C 34% 1014.1 hPa - - - -

* Rain since midnight (hover to see other rain measurements)
** Current wind speed in m/s (hover to see current wind gust speed)